Weather Roundup
Issued by NWS Chicago, IL

Home | Current Version | Previous Version | Text Only | Print | Product List | Glossary On
Versions: 1 2 3 4 5 6 7 8 9 10 11 12 13 14 15 16 17 18 19 20 21 22 23 24 25 26 27 28 29 30 31 32 33 34 35 36 37 38 39 40 41 42 43 44 45 46 47 48 49 50
000
NZUS59 KLOT 210909
HRRLOT

CHICAGO AREA WEATHER ROUNDUP
NATIONAL WEATHER SERVICE CHICAGO/ROMEOVILLE IL
400 AM CDT FRI JUL 21 2017

NOTE: "FAIR" INDICATES FEW OR NO CLOUDS BELOW 12,000 FEET WITH NO
SIGNIFICANT WEATHER AND/OR OBSTRUCTIONS TO VISIBILITY.

* THESE STATIONS ARE NOT UNDER NWS QUALITY CONTROL. THEY ALSO MAY NOT
  REPORT WEATHER SUCH AS PRECIPITATION OR FOG.

ILZ005-006-012>014-019>023-211000-
NORTHEAST ILLINOIS

CITY           SKY/WX    TMP DP  RH WIND       PRES   REMARKS
OHARE          CLOUDY    75  70  84 SE6       29.96F
MIDWAY         CLOUDY    76  70  82 CALM      29.96F
AURORA         CLOUDY    70  70 100 SW5       30.00R
LANSING*       CLOUDY    71  68  91 CALM      29.97F
JOLIET*        CLOUDY    73  73  98 CALM      29.97F
WAUKEGAN       MOCLDY    68  68 100 CALM      29.98R FOG
DUPAGE AIRPORT CLOUDY    72  69  90 S5        29.98R
WHEELING       CLOUDY    73  73 100 CALM      29.98F
MORRIS*        CLOUDY    72  71  97 CALM      29.98R FOG
LEWIS AIRPORT* CLOUDY    71  69  92 CALM      29.98F
NORTHERLY ISL    N/A     74  68  81 CALM        N/A
$$

WIZ051-052-058>065-066-070>072-211000-
SOUTHEAST WISCONSIN

CITY           SKY/WX    TMP DP  RH WIND       PRES   REMARKS
MILWAUKEE      CLOUDY    74  71  91 W3        29.98R
KENOSHA*       CLOUDY    70  68  93 CALM      30.00R
RACINE*        CLOUDY    70  69  97 CALM      30.00R
WAUKESHA       CLOUDY    66  66 100 CALM      30.00S
WEST BEND      CLOUDY    64  64 100 CALM      30.00R
$$

INZ001>003-010>013-019-020-211000-
NORTHWEST INDIANA

CITY           SKY/WX    TMP DP  RH WIND       PRES   REMARKS
GARY*          CLOUDY    74  69  83 S3        29.97F
MICHIGAN CITY* NOT AVBL
RENSSELAER*    NOT AVBL
VALPARAISO     CLOUDY    75  70  84 E7        29.98F
$$

LMZ740>746-211000-
SOUTHERN LAKE MICHIGAN

STATION/POSITION TIME  SKY/WX   TEMP WIND        PRES    VSBY
                                AIR  DIR/SP/G
                 (UTC)          (F)  (DEG/KT/KT) (MB)    (MI)
HARRISON CRIB    0840            78  130/  6/  8   N/A
BURNHAM HARBOR   0900            74                N/A
CALUMET HARBOR   0842            76  210/  1/  2 1014.6F
BURNS HARBOR     0840            76  210/  7/ 14 1015.9R
MICHIGAN CITY    0840            72  210/  6/  7   N/A
$$

ABBREVIATIONS USED IN REMARKS
   TC - TEMPERATURE IN CELSIUS
  WCI - WIND CHILL INDEX
   HX - HEAT INDEX
  VSB - VISIBILITY
$$



USA.gov is the U.S. government's official web portal to all federal, state and local government web resources and services.